[[{"header":{"parameterUnit":"m.s-1","parameterCategory":1,"la1":30.2991,"la2":30.254,"lo1":-89.0895,"lo2":-89.0444,"dy":0.0017,"dx":0.0017,"nx":28,"ny":28,"refTime":"2025-07-08T03:00:00:Z","depth":0,"parameterNumber":2,"parameterNumberName":"U-component_of_WINDS"},"data":[0,0,0,0,0,0,0,0,0,0,0,0,0,0,0,0,0,0,0,0,0,0,0,0,0,0,0,0,0,0,0,0,0,0,0,0,0,0,0,0,0,0,0,0,0,0,0,0,0,0,0,0,0,0,0,0,0,0,2.7609,2.761,0,2.773,2.7731,2.7733,2.7704,2.7702,2.7699,2.7697,2.7822,2.7827,2.7832,0,0,0,0,0,0,0,0,0,0,0,0,0,2.7352,2.7357,2.7609,2.761,2.7612,2.773,2.7731,2.7733,2.7704,2.7702,2.7699,2.7696,2.782,2.7826,2.7833,0,0,0,0,0,0,0,0,0,0,0,0,0,2.7467,2.7358,2.7608,2.7612,2.7613,2.7729,2.7731,2.7733,2.7705,2.7701,2.7698,2.7695,2.7818,2.7826,2.7834,2.7954,0,0,2.7859,2.7862,0,0,0,0,0,0,0,0,2.7461,2.7477,2.761,2.7612,2.7613,2.7698,2.7686,2.7807,2.7706,2.767,2.7697,2.7693,2.7783,2.7794,2.7825,2.796,2.7965,2.786,2.7865,2.7868,2.787,0,0,0,0,0,0,0,2.7453,2.7471,2.7657,2.7612,2.7614,2.7607,2.7619,2.7709,2.7745,2.7673,2.7671,2.7686,2.7784,2.7817,2.7827,2.7967,2.7859,2.7867,2.7872,2.7875,2.8205,2.8209,0,0,0,0,0,0,2.7443,2.7465,2.7653,2.766,2.7527,2.7614,2.7628,2.7675,2.7744,2.7751,2.7689,2.7684,2.7804,2.7818,2.7832,2.7975,2.7868,2.7876,2.7881,2.8201,2.8206,2.821,0,0,0,0,0,0,2.7438,2.746,2.7648,2.7562,2.7585,2.7622,2.7675,2.7679,2.7712,2.7756,2.7762,2.7716,2.7802,2.782,2.7923,2.7979,2.7879,2.7887,2.8197,2.8203,2.8208,2.8265,0,0,0,0,0,0,2.743,2.7458,2.7505,2.7563,2.759,2.7738,2.7678,2.7684,2.7726,2.7721,2.7783,2.779,2.7801,2.7911,2.7931,2.7989,2.7893,2.8192,2.8199,2.8206,2.8258,2.8272,2.8283,0,0,0,0,0,2.7421,2.7517,2.7507,2.753,2.7649,2.7741,2.7757,2.7767,2.7731,2.7777,2.7805,2.7788,2.797,2.7922,2.7945,2.8005,2.8188,2.8197,2.8205,2.8252,2.8269,2.8283,0,0,0,0,0,0,2.7465,2.7524,2.7515,2.7632,2.7682,2.7736,2.7796,2.7785,2.7846,2.7839,2.785,2.7864,2.7969,2.7998,2.7943,2.8124,2.8074,2.8087,2.8101,2.8118,2.813,2.812,2.79,0,0,0,0,0,2.7488,2.7558,2.7606,2.7705,2.773,2.7759,2.7799,2.7803,2.7855,2.7876,2.7912,2.7963,2.8031,2.8076,2.8142,2.8262,2.8274,2.8315,2.8327,2.8338,2.8349,2.8412,2.843,2.8238,2.8238,2.8238,0,0,2.7536,2.7578,2.7621,2.7715,2.7754,2.7825,2.7777,2.7855,2.7908,2.7888,2.7987,2.8015,2.8073,2.8184,2.8235,2.8211,2.8404,2.8349,2.8356,2.8362,2.8423,2.8441,2.8457,2.8244,2.8243,2.8242,0,0,2.7661,2.77,2.7785,2.7825,2.7884,2.7902,2.7922,2.7979,2.7996,2.8096,2.8081,2.8145,2.8263,2.8304,2.834,2.8479,2.8464,2.85,2.8566,2.8627,2.8642,2.8656,2.8703,2.872,2.8511,2.8511,2.8511,0,2.7714,2.7821,2.783,2.791,2.795,2.7935,2.802,2.8059,2.8137,2.8165,2.8137,2.8283,2.8322,2.8441,2.8475,2.8505,2.8528,2.8492,2.8639,2.8653,2.8666,2.8711,2.8729,2.8515,2.8515,2.8514,2.8514,0,2.7882,2.7957,2.8018,2.8093,2.814,2.8223,2.8244,2.8291,2.829,2.8311,2.8411,2.8456,2.853,2.8559,2.856,2.8678,2.8661,2.8637,2.8586,2.8688,2.873,2.8748,2.852,2.8519,2.8518,2.8517,0,0,2.8038,2.8115,2.8137,2.817,2.8233,2.8291,2.8372,2.8443,2.8482,2.8536,2.8603,2.8703,2.868,2.8721,2.8726,2.8781,2.8884,2.8749,2.875,2.8771,2.9016,2.9032,2.9052,2.8876,2.8879,2.8882,2.901,0,2.8166,2.8308,2.8318,2.8446,2.8514,2.85,2.857,2.8616,2.8637,2.8698,2.8721,2.8791,2.8756,2.878,2.8834,2.886,2.8933,2.8852,2.8937,2.894,2.8921,2.9075,2.9094,2.9213,2.9027,2.903,2.9032,0,2.8336,2.8393,2.8528,2.8579,2.8608,2.8671,2.8736,2.8794,2.8846,2.8857,2.8903,2.89,2.8982,2.8929,2.9041,2.8985,2.9021,2.9039,2.9044,2.9051,2.8991,2.9085,2.9251,2.9268,2.9059,2.9056,2.9055,0,2.8433,2.8545,2.8639,2.8667,2.8731,2.8775,2.8803,2.8851,2.8893,2.895,2.8976,2.9042,2.9078,2.9129,2.9143,2.9104,2.9255,2.9204,2.9265,2.9265,2.9297,2.9294,2.9469,2.9323,2.9322,2.9322,2.9322,0,2.8575,2.8657,2.8683,2.8741,2.8832,2.8842,2.8932,2.8958,2.9001,2.9062,2.9055,2.9113,2.913,2.9191,2.9203,2.9292,2.9309,2.932,2.9322,2.932,2.9318,2.9342,2.9334,2.9327,2.9326,2.9325,2.9324,0,2.8699,2.872,2.8821,2.8872,2.8886,2.8951,2.8995,2.905,2.9069,2.9148,2.9167,2.9198,2.9269,2.9289,2.9375,2.9382,2.9487,2.9483,2.947,2.9469,2.9529,2.9522,2.9725,2.9751,2.9588,2.959,2.9591,0,2.8787,2.885,2.8907,2.8947,2.8977,2.9043,2.9085,2.9098,2.9141,2.9203,2.9251,2.9321,2.9377,2.9492,2.9522,2.9587,2.9582,2.9649,2.9592,2.9587,2.9581,2.9576,2.9581,2.9659,2.9661,2.9662,2.9663,0,2.8941,2.8948,2.9008,2.9072,2.9121,2.9172,2.9221,2.9255,2.9274,2.9323,2.9395,2.9439,2.9526,2.9595,2.966,2.9689,2.9679,2.9681,2.9698,2.9696,2.9685,2.9689,2.9497,2.9676,2.9674,2.9674,2.9673,2.9672,2.9049,2.9103,2.9151,2.9218,2.9255,2.93,2.9354,2.938,2.944,2.9511,2.9515,2.9592,2.9641,2.9727,2.976,2.982,2.9801,2.9826,2.9833,2.9838,2.9842,2.9676,2.9833,2.9832,2.9832,2.9832,2.9832,0,2.92,2.923,2.9291,2.9359,2.9411,2.9397,2.945,2.9494,2.9562,2.9608,2.9663,2.9745,2.9812,2.9847,2.9912,2.9954,2.9951,2.9971,2.9967,2.9973,2.9857,2.9835,2.9972,2.9972,2.9972,2.9972,2.9972,2.9972,2.9285,2.9375,2.9387,2.9495,2.9524,2.96,2.9631,2.9672,2.9708,2.98,2.9855,2.9877,2.9918,2.9986,3.0046,3.0054,3.0078,3.01,3.0106,2.9996,2.9982,2.9968,2.9947,3.0106,3.0106,3.0217,3.0218,3.0219]},{"header":{"parameterUnit":"m.s-1","parameterCategory":1,"la1":30.2991,"la2":30.254,"lo1":-89.0895,"lo2":-89.0444,"dy":0.0017,"dx":0.0017,"nx":28,"ny":28,"refTime":"2025-07-08T03:00:00:Z","depth":0,"parameterNumber":3,"parameterNumberName":"V-component_of_WINDS"},"data":[0,0,0,0,0,0,0,0,0,0,0,0,0,0,0,0,0,0,0,0,0,0,0,0,0,0,0,0,0,0,0,0,0,0,0,0,0,0,0,0,0,0,0,0,0,0,0,0,0,0,0,0,0,0,0,0,0,0,0.2779,0.2779,0,0.2773,0.2773,0.2773,0.273,0.2729,0.2728,0.2727,0.2724,0.2725,0.2726,0,0,0,0,0,0,0,0,0,0,0,0,0,0.2757,0.2757,0.2779,0.2779,0.2779,0.2773,0.2773,0.2773,0.273,0.2729,0.2728,0.2726,0.2724,0.2725,0.2726,0,0,0,0,0,0,0,0,0,0,0,0,0,0.276,0.2758,0.2779,0.2757,0.2755,0.2773,0.2773,0.2773,0.2731,0.2729,0.2727,0.2726,0.2724,0.2725,0.2727,0.2767,0,0,0.2731,0.2731,0,0,0,0,0,0,0,0,0.276,0.2761,0.276,0.2759,0.2756,0.2751,0.2764,0.2771,0.2731,0.274,0.2727,0.2725,0.2735,0.2735,0.2738,0.2767,0.2767,0.2731,0.2732,0.2732,0.2733,0,0,0,0,0,0,0,0.276,0.2761,0.2777,0.276,0.2758,0.2748,0.2747,0.2765,0.2747,0.2739,0.2736,0.2736,0.2733,0.2736,0.2737,0.2767,0.2731,0.2732,0.2733,0.2733,0.2828,0.283,0,0,0,0,0,0,0.2762,0.2761,0.2777,0.2777,0.2754,0.275,0.2748,0.2754,0.2746,0.2743,0.2737,0.2734,0.2735,0.2736,0.2737,0.2784,0.2732,0.2734,0.2734,0.2827,0.2829,0.2831,0,0,0,0,0,0,0.2762,0.2764,0.2777,0.2768,0.2769,0.2752,0.2759,0.2755,0.2758,0.2744,0.2741,0.2743,0.2734,0.2735,0.2759,0.2783,0.2734,0.2736,0.2825,0.2827,0.283,0.2878,0,0,0,0,0,0,0.2762,0.2764,0.2779,0.2769,0.277,0.28,0.276,0.2756,0.276,0.2755,0.275,0.2747,0.2732,0.2758,0.2761,0.2784,0.2737,0.2823,0.2826,0.2829,0.2874,0.2882,0.2888,0,0,0,0,0,0.2761,0.2794,0.278,0.2782,0.2788,0.2801,0.2802,0.2783,0.2762,0.2777,0.2768,0.2747,0.278,0.276,0.2764,0.2788,0.2821,0.2825,0.2829,0.2871,0.288,0.2888,0,0,0,0,0,0,0.2809,0.2792,0.2777,0.2807,0.2805,0.2794,0.2812,0.2793,0.2799,0.2795,0.2772,0.2771,0.2799,0.2796,0.2775,0.2826,0.2797,0.2801,0.2828,0.2836,0.2843,0.2844,0.2738,0,0,0,0,0,0.2823,0.2834,0.2819,0.2847,0.2847,0.283,0.2835,0.282,0.2818,0.2818,0.2811,0.2811,0.2821,0.2828,0.2837,0.2873,0.2871,0.2891,0.2898,0.2904,0.2908,0.2927,0.2936,0.2843,0.2843,0.2843,0,0,0.2852,0.2844,0.2853,0.2857,0.2854,0.2867,0.283,0.2845,0.2855,0.2821,0.2843,0.2838,0.2836,0.2867,0.288,0.2865,0.2933,0.2909,0.2913,0.2915,0.2932,0.2941,0.2948,0.2846,0.2845,0.2845,0,0,0.2913,0.2907,0.293,0.2927,0.2923,0.2911,0.2916,0.2907,0.2902,0.2923,0.2898,0.2909,0.2927,0.2927,0.2929,0.2987,0.2969,0.2991,0.3028,0.3047,0.3054,0.306,0.3082,0.309,0.2995,0.2995,0.2995,0,0.295,0.2968,0.2945,0.2961,0.2964,0.2931,0.2955,0.2954,0.2953,0.2956,0.2938,0.2959,0.2956,0.2986,0.3,0.3002,0.3009,0.2992,0.3054,0.3061,0.3066,0.3086,0.3094,0.2998,0.2998,0.2997,0.2997,0,0.3014,0.3026,0.3046,0.3044,0.3048,0.3068,0.3049,0.3056,0.3041,0.3031,0.3053,0.3048,0.3055,0.306,0.3046,0.3088,0.3079,0.3058,0.3028,0.3078,0.3097,0.3104,0.3002,0.3001,0.3,0.3,0,0,0.3106,0.309,0.3098,0.3096,0.3088,0.3098,0.3116,0.3121,0.3128,0.3128,0.3144,0.3158,0.3139,0.3142,0.3127,0.3143,0.319,0.312,0.312,0.3134,0.3236,0.3252,0.3261,0.3176,0.3178,0.3179,0.3236,0,0.3165,0.3194,0.3173,0.3207,0.3218,0.3187,0.3203,0.32,0.3191,0.32,0.319,0.3201,0.3174,0.3176,0.319,0.3181,0.321,0.3176,0.3192,0.3193,0.3194,0.3271,0.3288,0.3342,0.3243,0.3244,0.3245,0,0.3237,0.3238,0.3273,0.3261,0.3265,0.328,0.3282,0.3291,0.3287,0.3279,0.3281,0.3262,0.328,0.3249,0.3274,0.3252,0.3257,0.3253,0.3255,0.3256,0.3223,0.3275,0.3359,0.3368,0.3256,0.3255,0.3255,0,0.3301,0.3312,0.3334,0.3333,0.3321,0.3332,0.3327,0.3321,0.3325,0.3328,0.333,0.3335,0.3338,0.3343,0.3326,0.3305,0.3353,0.3321,0.3348,0.3348,0.3361,0.336,0.3447,0.3362,0.3362,0.3362,0.3362,0,0.3369,0.3392,0.3362,0.3376,0.34,0.3376,0.3401,0.3393,0.3388,0.34,0.3373,0.3386,0.3361,0.3371,0.3358,0.3381,0.3382,0.3377,0.3374,0.338,0.3381,0.3384,0.338,0.3364,0.3363,0.3363,0.3363,0,0.3446,0.3427,0.3449,0.3434,0.3431,0.345,0.3437,0.345,0.3438,0.3453,0.3456,0.3438,0.3448,0.343,0.3439,0.343,0.3462,0.3452,0.3463,0.346,0.3488,0.3486,0.3581,0.3593,0.3499,0.35,0.3501,0,0.3491,0.3507,0.3494,0.3499,0.3496,0.3505,0.3508,0.3485,0.349,0.3486,0.3499,0.3506,0.3511,0.3528,0.3517,0.3523,0.3514,0.3546,0.3515,0.352,0.3515,0.3515,0.3516,0.3554,0.3555,0.3556,0.3556,0,0.3573,0.3563,0.3568,0.357,0.3574,0.3575,0.3574,0.358,0.3555,0.3562,0.3571,0.3575,0.3582,0.359,0.3593,0.3589,0.3569,0.3566,0.3573,0.358,0.3586,0.3584,0.3482,0.3564,0.3564,0.3563,0.3563,0.3562,0.3636,0.3649,0.3641,0.3648,0.3644,0.3643,0.3654,0.3642,0.3649,0.3652,0.3638,0.3651,0.3646,0.3647,0.3645,0.3655,0.3641,0.3651,0.3653,0.3656,0.3661,0.3583,0.3656,0.3655,0.3655,0.3655,0.3655,0,0.3717,0.371,0.3716,0.3715,0.372,0.3698,0.3696,0.3702,0.3713,0.3709,0.3714,0.3724,0.3731,0.3719,0.3725,0.3735,0.3726,0.3737,0.3737,0.3737,0.3673,0.3667,0.3745,0.3745,0.3745,0.3745,0.3745,0.3745,0.376,0.3781,0.3769,0.3787,0.378,0.3791,0.3791,0.3791,0.3788,0.38,0.3805,0.3797,0.379,0.3794,0.38,0.3796,0.38,0.3815,0.3809,0.375,0.3741,0.3733,0.3727,0.3816,0.3816,0.3871,0.3872,0.3872]}]]